Voltar ao catálogo

GLOBALSTAR M053

AtivoComunicaçõesMEO
NORAD 25886·PAYLOAD·🇺🇸 United States

Lançado Aug 17, 1999 de Cape Canaveral Space Force Station

Loading…

Próximas Passagens (próximas 24 horas)

TLE

AtualizadoSource: Space-Track

Época: Sep 14, 2026, 18:58 UTC

1 25886U 99043D   26257.79065205 -.00000056  00000-0  38136-3 0  9996
2 25886  51.9967 189.0508 0003280 123.2747 248.7259 11.27673278170737

Acompanhe GLOBALSTAR M053 em tempo real com AllMySat

Download on the App Store